Flag for United Arab Emirates Weather past 2 weeks in Abu Dhabi, Abu Dhabi, United Arab Emirates

Now
104 °F

Passing clouds.


Feels Like: 109 °F
Forecast: 91 / 105 °F
Wind: 6 mph from South

Location: Abu Dhabi Bateen Airport

Current Time: Jul 25, 2014 at 3:34:37 PM

Latest Report: Jul 25, 2014 at 3:00 PM


Visibility: N/A

Pressure: 29.42 "Hg

Humidity: 29%

Dew point: 66 °F

Location of Abu DhabiLocation

Historic Weather in Abu Dhabi — Graph

°F

Abu Dhabi temperature yesterday

Maximum temperature yesterday: 102 °F (at 2:00 PM)
Minimum temperature yesterday: 86 °F (at 7:00 AM)
Average temperature yesterday: 94 °F

Past Weeks' High & Low Weather Summary

 TemperatureHumidityPressure
High109 °F (Jul 18, 1:00 PM)94% (Jul 14, 5:00 AM)29.53 "Hg (Jul 14, 5:00 AM)
Low86 °F (Jul 11, 5:00 AM)15% (Jul 17, 12:00 PM)29.33 "Hg (Jul 17, 5:00 PM)
Average95 °F59%29.43 "Hg
* Reported Jul 10 2:00 PM — Jul 25 2:00 PM, Abu Dhabi, Weather by CustomWeather, © 2014

Note: Actual official high and low records may vary slightly from our data, if they occured in-between our weather recording intervals... More about our weather records

Advertising

Abu Dhabi weather history for previous 24 hours

 ConditionsComfort  
Time TempWeatherWind HumidityBarometerVisibility
2:00 PM
Jul 25
102 °FPassing clouds.7 mph37%29.42 "HgN/A
1:00 PM100 °FPassing clouds.7 mph40%29.45 "HgN/A
12:00 PM97 °FPassing clouds.7 mph60%29.47 "HgN/A
11:00 AM95 °FPassing clouds.6 mph63%29.47 "HgN/A
10:00 AM93 °FPassing clouds.5 mph63%29.47 "HgN/A
9:00 AM90 °FPassing clouds.5 mph67%29.47 "HgN/A
8:00 AM90 °FPassing clouds.3 mph55%29.47 "HgN/A
7:00 AM88 °FPassing clouds.3 mph49%29.45 "HgN/A
6:00 AM90 °FPassing clouds.5 mph52%29.45 "HgN/A
5:00 AM88 °FClear.2 mph75%29.42 "Hg10 mi
4:00 AM88 °FClear.2 mph79%29.42 "Hg10 mi
3:00 AM90 °FPassing clouds.6 mph75%29.39 "HgN/A
2:00 AM90 °FPassing clouds.7 mph75%29.39 "HgN/A
1:00 AM91 °FClear.6 mph75%29.42 "Hg10 mi
12:00 AM91 °FPassing clouds.5 mph75%29.42 "HgN/A
11:00 PM
Jul 24
91 °FPassing clouds.6 mph71%29.45 "HgN/A
10:00 PM93 °FPassing clouds.6 mph67%29.45 "HgN/A
9:00 PM93 °FPassing clouds.5 mph63%29.42 "HgN/A
8:00 PM95 °FPassing clouds.7 mph60%29.42 "HgN/A
7:00 PM95 °FPassing clouds.7 mph60%29.39 "HgN/A
6:00 PM99 °FPassing clouds.8 mph50%29.39 "HgN/A
5:00 PM99 °FPassing clouds.10 mph47%29.39 "HgN/A
4:00 PM100 °FPassing clouds.9 mph40%29.39 "HgN/A
3:00 PM102 °FPassing clouds.9 mph35%29.39 "HgN/A
Weather by CustomWeather, © 2014

See weather overviewHow to use our weather pages